Aérodrome :
LOGIN :

S'inscrire | Disclaimer

   EN    FR    IT 

 










Légende :    VFR   VFR Marginal   IFR   IFR Intensif   IFR Très Intensif
Visi : 
Plafond : 
>= 8 km
>= 3000ft
5 à 8 km
1000 à 3000 ft
1500m à 5 km
500 à 1000 ft
800 à 1500m
200 à 500 ft
< 800m
< 200 ft
Symboles :   Orages  Brouillard  Fortes neiges  Fortes précipitations  Vent > 20 kt
SIGMETs :   Divers  Orages  Givrage  Turbulence  Onde Orograph.  Cendres Volcan.







- Altitude de l'aérodrome : 512 ft
- Code IATA : URO
- Voir les cartes d'approche


LFOP - Rouen Vallée de Seine

DERNIER METAR :
  • 262030Z AUTO VRB01KT CAVOK 08/03 Q1017

METARs EXPIRÉS :
  • 262000Z AUTO 31003KT CAVOK 09/03 Q1018 NOSIG
  • 261930Z AUTO 31003KT CAVOK 09/03 Q1018 NOSIG
  • 261900Z AUTO 29004KT CAVOK 10/04 Q1018 NOSIG
  • 261830Z AUTO 29005KT CAVOK 11/04 Q1018 NOSIG
  • 261800Z AUTO 29007KT 9999 FEW048 12/04 Q1018 NOSIG

TAF TAF LFOP
Valide du 26 à 18h jusqu'au 27 à 18h UTC


261700Z 2618/2718 30012KT CAVOK
BECMG 2618/2621 VRB02KT
BECMG 2705/2708 16012KT
BECMG 2714/2717 21017G27KT
PROB40
TEMPO 2715/2717 4000 SHRA BKN025TCU
ATIS : +33 2 35 80 80 34
Météo : +33 2 32 86 52 80
Pas de NOTAMs connus pour ce terrain.



MET'MAP, la Météo Aéronautique d'un coup d'oeil ! - Copyright ORBIFLY Décembre 2007 - Disclaimer

ORBIFLY MET'MAP TEAM :

Programmation & Développement : Alexandra Zaïnal
Conception & Développement : Baudouin d'Aumeries
Co-Programmation & Développement : Marc-Olivier Méhu
Soutien technique & logistique : Manuel Goepfert

Contact : metmap@orbifly.com




SOURCES & CREDITS :

   NOAA